Location: Warszawa
(52.2322°N, 21.0083°E)
Time: 22:40:18
(UTC+02:00)

ISS - Pass Details

Date: 23 March 2019
Orbit: 408 x 410 km, 51.6° (Epoch: 23 April)

Event Time Altitude Azimuth Distance (km) Brightness Sun altitude
Rises 20:18:31 0° 244° (WSW) 2,331 0.4 -21.7°
Reaches altitude 10° 20:20:37 10° 239° (WSW) 1,472 -0.7 -22.0°
Enters shadow 20:21:58 22° 231° (SW) 953 -1.8 -22.1°
